sat.trackr.live / text

‹ back to catalog

STARLINK-5615

NORAD 55425 · 2023-014AL

PAYLOAD ACTIVE UNKNOWN

§ Identity

Operator
Country
US
Launch date
2023-01-31
Launch site
AFWTR
Launch vehicle
Mass (kg)
RCS (m²)

Purposes: comms

External: N2YO · Heavens-Above · Gunter

§ Orbital elements

Epoch: 2026-09-20T22:00:03.000096Z

Period
95.70 min
Inclination
70.0016°
Eccentricity
0.0000432
Mean motion
15.04653834 rev/d
Perigee alt
552.3 km
Apogee alt
552.9 km
Semi-major
6,930.7 km
B*
5.5800e-3
RAAN
312.2046°
Arg perigee
295.9170°
Mean anomaly
144.2305°
Rev number
567

§ Raw data

STARLINK-56151 55425U 23014AL  26263.91670139  .00079399  00000+0  55800-2 0  99922 55425  70.0016 312.2046 0000432 295.9170 144.2305 15.04653834  5673

JSON: /api/v1/satellites/55425 · /tle

For live sub-satellite position, see the globe view (requires WebGL).

§ Visibility from observer

Set your observer location to see the next 7 days of passes ≥ 10°. The values pass through the URL so the page stays shareable.

No JS? Fill the form by hand. The geolocation button needs JavaScript.